This is the latest recevied weather packets stored in our database for station/object NorthRyde. If no packets are shown the sender has not sent any weather packets the latest 10 day(s).
| Time | Temp. | Humidity | Pressure | Rain* | Wind** | Luminosity | Snow |
|---|---|---|---|---|---|---|---|
| 1777520635 | 25.56° C | 58% | 1029.7 hPa | 0 mm | - | 582 W/m² | - |
| 1777520613 | 25.56° C | 59% | 1029.7 hPa | 0 mm | - | 582 W/m² | - |
| 1777520596 | 25.56° C | 59% | 1029.6 hPa | 0 mm | - | 584 W/m² | - |
| 1777520557 | 25° C | 58% | 1029.6 hPa | 0 mm | - | 578 W/m² | - |
| 1777520401 | 25° C | 57% | 1029.6 hPa | 0 mm | - | 580 W/m² | - |
| 1777520380 | 25° C | 58% | 1029.7 hPa | 0 mm | - | 580 W/m² | - |
| 1777520362 | 25° C | 58% | 1029.6 hPa | 0 mm | - | 580 W/m² | - |
| 1777520342 | 25° C | 59% | 1029.7 hPa | 0 mm | - | 582 W/m² | - |
| 1777520137 | 25° C | 60% | 1029.7 hPa | 0 mm | - | 580 W/m² | - |
| 1777520078 | 25° C | 60% | 1029.7 hPa | 0 mm | - | 578 W/m² | - |
| 1777520019 | 24.44° C | 61% | 1029.7 hPa | 0 mm | - | 575 W/m² | - |
| 1777519958 | 24.44° C | 60% | 1029.8 hPa | 0 mm | - | 570 W/m² | - |
| 1777519897 | 24.44° C | 60% | 1029.7 hPa | 0 mm | - | 568 W/m² | - |
| 1777519838 | 24.44° C | 60% | 1029.7 hPa | 0 mm | - | 582 W/m² | - |
| 1777519779 | 24.44° C | 60% | 1029.6 hPa | 0 mm | - | 492 W/m² | - |
| 1777519749 | 24.44° C | 61% | 1029.8 hPa | 0 mm | - | 587 W/m² | - |
| 1777519732 | 23.89° C | 61% | 1029.8 hPa | 0 mm | - | 97 W/m² | - |
| 1777519712 | 23.89° C | 60% | 1029.7 hPa | 0 mm | - | 97 W/m² | - |
| 1777519538 | 23.89° C | 60% | 1029.8 hPa | 0 mm | - | 97 W/m² | - |
| 1777519463 | 24.44° C | 60% | 1029.8 hPa | 0 mm | - | 97 W/m² | - |
| 1777519395 | 24.44° C | 60% | 1029.9 hPa | 0 mm | - | 193 W/m² | - |
| 1777519336 | 24.44° C | 60% | 1029.9 hPa | 0 mm | - | 163 W/m² | - |
| 1777519279 | 24.44° C | 59% | 1029.9 hPa | 0 mm | - | 163 W/m² | - |
| 1777519212 | 24.44° C | 59% | 1029.9 hPa | 0 mm | - | 163 W/m² | - |
| 1777519150 | 24.44° C | 58% | 1030 hPa | 0 mm | - | 163 W/m² | - |
* Rain latest hour (hover to see other rain measurements)
** Current wind speed in m/s (hover to see current wind gust speed)